Hourly Weather Roundup
Issued by NWS Central Illinois

Home | Current Version | Previous Version | Text Only | Print | Product List | Glossary On
Versions: 1 2 3 4 5 6 7 8 9 10 11 12 13 14 15 16 17 18 19 20 21 22 23 24 25 26 27 28 29 30 31 32 33 34 35 36 37 38 39 40 41 42 43 44 45 46 47 48 49 50
000
NZUS43 KILX 220010
HWRILX

Area Weather Roundup
National Weather Service Lincoln IL
700 PM CDT WED JUN 21 2017

NOTE:  "FAIR" indicates few or no clouds below 12,000 feet, with
       no sigificant weather and/or obstructions to visibility.


CITY           SKY/WX    TMP DP  RH WIND       PRES   REMARKS
Bloomington    CLOUDY    79  67  66 S7        29.90F HX  81
6HR MIN TEMP:  76; 6HR MAX TEMP:  81;

Champaign      CLOUDY    85  66  53 S6        29.90F HX  87
6HR MIN TEMP:  81; 6HR MAX TEMP:  86;

Danville       CLOUDY    82  69  64 SW5       29.88F HX  85
6HR MIN TEMP:  80; 6HR MAX TEMP:  85;

Decatur        PTSUNNY   86  71  60 S12       29.89F HX  91
6HR MIN TEMP:  80; 6HR MAX TEMP:  88;

Effingham      CLOUDY    87  71  58 SE6       29.93R HX  93
6HR MIN TEMP:  85; 6HR MAX TEMP:  92;

Flora          CLOUDY    87  67  51 S13       29.93R HX  90
Galesburg      CLOUDY    79  68  69 S6        29.86R HX  82
6HR MIN TEMP:  69; 6HR MAX TEMP:  81;

Jacksonville   SUNNY     88  67  48 S10       29.86F HX  91
6HR MIN TEMP:  80; 6HR MAX TEMP:  90;

Lacon          MOSUNNY   79  68  69 CALM      29.86F HX  81
6HR MIN TEMP:  75; 6HR MAX TEMP:  80;

Lawrenceville  CLOUDY    87  67  51 SW10      29.93R HX  90
6HR MIN TEMP:  87; 6HR MAX TEMP:  94; 6HR PCP: TRACE;

Litchfield     CLOUDY    85  70  60 S10       29.90S HX  90
6HR MIN TEMP:  85; 6HR MAX TEMP:  89;

$$


CITY           SKY/WX    TMP DP  RH WIND       PRES   REMARKS
Lincoln        SUNNY     88  72  59 S3        29.88S HX  94
6HR MIN TEMP:  78; 6HR MAX TEMP:  88;

Macomb         MOSUNNY   85  71  61 SE9       29.87S HX  90
6HR MIN TEMP:  76; 6HR MAX TEMP:  86;

Mattoon        MOSUNNY   84  73  69 S3        29.91S HX  90
6HR MIN TEMP:  83; 6HR MAX TEMP:  89;

Mt Carmel AP   CLOUDY    85  68  55 SW15      29.92F HX  88
6HR MIN TEMP:  85; 6HR MAX TEMP:  94;

Olney-Noble AP CLOUDY    86  67  54 S9        29.93S HX  88
Paris AP       CLOUDY    83  70  64 S10G16    29.92S HX  86
6HR MIN TEMP:  83; 6HR MAX TEMP:  86;

Peoria         CLOUDY    81  70  69 S7        29.86F HX  84
6HR MIN TEMP:  72; 6HR MAX TEMP:  83;

Pontiac        SUNNY     81  69  66 S9        29.89F HX  84
6HR MIN TEMP:  77; 6HR MAX TEMP:  82;

Rantoul        MOSUNNY   83  69  62 S5        29.90F HX  87
6HR MIN TEMP:  83; 6HR MAX TEMP:  86;

Robinson       CLOUDY    77  71  82 SW6       29.93F
6HR MIN TEMP:  74; 6HR MAX TEMP:  91; 6HR PCP:  0.01;

Springfield    SUNNY     89  69  51 S9        29.87F HX  93
6HR MIN TEMP:  80; 6HR MAX TEMP:  91;

Taylorville    CLOUDY    87  70  56 S9        29.89S HX  92
6HR MIN TEMP:  83; 6HR MAX TEMP:  89;

$$

...REGIONAL REPORTS...


CITY           SKY/WX    TMP DP  RH WIND       PRES   REMARKS
Chicago O`Hare CLOUDY    76  54  46 E12       29.89R
Kankakee       MOSUNNY   81  63  54 S5        29.90R HX  82
Moline         PTSUNNY   78  65  63 NE6       29.87R HX  80
Mount Sterling SUNNY     84  69  61 S6        29.86S HX  88
Mount Vernon   MOSUNNY   85  69  58 S9        29.93F HX  89
Pittsfield     SUNNY     88  68  51 S8        29.88R HX  92
Quincy         SUNNY     86  66  51 S9        29.86R HX  88
Rockford       PTSUNNY   78  58  49 S14       29.90R
$$


CITY           SKY/WX    TMP DP  RH WIND       PRES   REMARKS
Burlington     MOSUNNY   84  71  65 SE9       29.82F HX  89
Cedar Rapids   LGT RAIN  70  70 100 SE16      29.81F
Des Moines     MOSUNNY   90  62  39 S16G24    29.74S HX  90
Kirksville     PTSUNNY   88  66  48 S14       29.84F HX  90
Ottumwa        SUNNY     86  66  51 S12       29.79R HX  88
St Louis       CLOUDY    91  66  43 S15       29.90S HX  93
$$


CITY           SKY/WX    TMP DP  RH WIND       PRES   REMARKS
Terre Haute    MOSUNNY   83  66  56 W7        29.92R HX  85
Evansville     MOSUNNY   84  67  56 SW14      29.96S HX  86
Indianapolis   CLOUDY    85  69  58 W9        29.92S HX  89
Lafayette      CLOUDY    81  67  62 S3        29.89F HX  83
Madison        CLOUDY    74  55  51 SE9       29.86F
Milwaukee      PTSUNNY   68  53  58 SE10      29.91R
$$






USA.gov is the U.S. government's official web portal to all federal, state and local government web resources and services.